| time (UTC) | temp F | wind direction | speed MPH | gust MPH | rain 1hr in | rain 24hr in | rain mn in | humidity % | barometer mb |
| 20260510044544 | 54 | 165 | 0.0 | 1.0 | 0.00 | 0.00 | 0.00 | 100 | 980.9 |
| 20260510043531 | 54 | 165 | 0.0 | 1.0 | 0.00 | 0.00 | 0.00 | 100 | 981.0 |
| 20260510043031 | 54 | 165 | 0.0 | 0.0 | 0.00 | 0.00 | 0.00 | 100 | 981.0 |
| 20260510042017 | 55 | 165 | 0.0 | 0.0 | 0.00 | 0.00 | 0.00 | 100 | 981.0 |
| 20260510041510 | 55 | 165 | 0.0 | 1.0 | 0.00 | 0.00 | 0.00 | 100 | 981.0 |
| 20260510041011 | 55 | 165 | 0.0 | 1.0 | 0.00 | 0.00 | 0.00 | 100 | 980.9 |
| 20260510040509 | 55 | 166 | 0.0 | 1.0 | 0.00 | 0.00 | 0.00 | 100 | 981.1 |
| 20260510040001 | 55 | 0 | 0.0 | 0.0 | 0.00 | 0.00 | 0.00 | 100 | 980.9 |
| 20260510035503 | 55 | 0 | 0.0 | 1.0 | 0.00 | 0.00 | 0.00 | 100 | 980.9 |
| 20260510035001 | 55 | 0 | 0.0 | 1.0 | 0.00 | 0.00 | 0.00 | 100 | 981.0 |
| 20260510034500 | 55 | 0 | 0.0 | 1.0 | 0.00 | 0.00 | 0.00 | 100 | 980.9 |
| 20260510034004 | 55 | 166 | 0.0 | 0.0 | 0.00 | 0.00 | 0.00 | 100 | 981.0 |
| 20260510033002 | 55 | 166 | 0.0 | 0.0 | 0.00 | 0.00 | 0.00 | 100 | 981.1 |
| 20260510032503 | 56 | 166 | 0.0 | 0.0 | 0.00 | 0.00 | 0.00 | 100 | 981.0 |
| 20260510032005 | 56 | 166 | 0.0 | 0.0 | 0.00 | 0.00 | 0.00 | 100 | 981.0 |
| 20260510031504 | 56 | 166 | 0.0 | 0.0 | 0.00 | 0.00 | 0.00 | 100 | 980.9 |
| 20260510031001 | 56 | 166 | 0.0 | 0.0 | 0.00 | 0.00 | 0.00 | 100 | 981.0 |
| 20260510030502 | 56 | 166 | 0.0 | 0.0 | 0.00 | 0.00 | 0.00 | 100 | 981.0 |
| 20260510030013 | 56 | 166 | 0.0 | 1.0 | 0.00 | 0.00 | 0.00 | 100 | 981.0 |
| 20260510025506 | 56 | 166 | 0.0 | 1.0 | 0.00 | 0.00 | 0.00 | 100 | 981.0 |
| 20260510025002 | 57 | 167 | 0.0 | 0.0 | 0.00 | 0.00 | 0.00 | 100 | 980.9 |
| 20260510024504 | 57 | 167 | 0.0 | 0.0 | 0.00 | 0.00 | 0.00 | 100 | 980.8 |
| 20260510024001 | 57 | 167 | 0.0 | 0.0 | 0.00 | 0.00 | 0.00 | 100 | 980.8 |
| 20260510023501 | 57 | 167 | 0.0 | 0.0 | 0.00 | 0.00 | 0.00 | 100 | 980.8 |
| 20260510023004 | 57 | 167 | 0.0 | 0.0 | 0.00 | 0.00 | 0.00 | 100 | 980.7 |
| 20260510022504 | 57 | 167 | 0.0 | 0.0 | 0.00 | 0.00 | 0.00 | 100 | 980.6 |
| 20260510022001 | 57 | 167 | 0.0 | 0.0 | 0.00 | 0.00 | 0.00 | 100 | 980.6 |
| 20260510021001 | 57 | 167 | 0.0 | 0.0 | 0.00 | 0.00 | 0.00 | 100 | 980.6 |
| 20260510020503 | 58 | 167 | 0.0 | 0.0 | 0.00 | 0.00 | 0.00 | 100 | 980.6 |
| 20260510020004 | 58 | 167 | 0.0 | 0.0 | 0.00 | 0.00 | 0.00 | 100 | 980.6 |
| 20260510015504 | 58 | 167 | 0.0 | 0.0 | 0.00 | 0.00 | 0.00 | 100 | 980.6 |
| 20260510015005 | 58 | 167 | 0.0 | 0.0 | 0.00 | 0.00 | 0.00 | 100 | 980.7 |
| 20260510014503 | 59 | 167 | 0.0 | 0.0 | 0.00 | 0.00 | 0.00 | 100 | 980.6 |
| 20260510013959 | 59 | 167 | 0.0 | 0.0 | 0.00 | 0.00 | 0.00 | 100 | 980.6 |
| 20260510013447 | 59 | 167 | 0.0 | 0.0 | 0.00 | 0.00 | 0.00 | 100 | 980.6 |
| 20260510012945 | 59 | 167 | 0.0 | 0.0 | 0.00 | 0.00 | 0.00 | 100 | 980.4 |
| 20260510012441 | 60 | 167 | 0.0 | 0.0 | 0.00 | 0.00 | 0.00 | 100 | 980.3 |
| 20260510011933 | 60 | 167 | 0.0 | 1.0 | 0.00 | 0.00 | 0.00 | 100 | 980.2 |
| 20260510011436 | 60 | 167 | 0.0 | 1.0 | 0.00 | 0.00 | 0.00 | 100 | 980.1 |
| 20260510010931 | 60 | 167 | 0.0 | 1.0 | 0.00 | 0.00 | 0.00 | 100 | 980.1 |
| 20260510005428 | 60 | 178 | 1.0 | 4.0 | 0.00 | 0.00 | 0.00 | 100 | 979.7 |
| 20260510004929 | 60 | 116 | 2.0 | 3.0 | 0.00 | 0.00 | 0.00 | 100 | 979.7 |
| 20260510004430 | 60 | 276 | 0.0 | 0.0 | 0.00 | 0.00 | 0.00 | 100 | 979.7 |
| 20260510003931 | 61 | 276 | 0.0 | 0.0 | 0.00 | 0.00 | 0.00 | 4 | 979.7 |
| 20260510003430 | 61 | 276 | 0.0 | 2.0 | 0.00 | 0.00 | 0.00 | 9 | 979.6 |
| 20260510002930 | 62 | 276 | 0.0 | 2.0 | 0.00 | 0.00 | 0.00 | 14 | 979.6 |
| 20260510002428 | 62 | 276 | 0.0 | 3.0 | 0.00 | 0.00 | 0.00 | 18 | 979.6 |
| 20260510001929 | 62 | 277 | 1.0 | 3.0 | 0.00 | 0.00 | 0.00 | 22 | 979.6 |
| 20260510001430 | 63 | 200 | 1.0 | 4.0 | 0.00 | 0.00 | 0.00 | 28 | 979.5 |
| 20260510000929 | 64 | 200 | 1.0 | 4.0 | 0.00 | 0.00 | 0.00 | 35 | 979.6 |
| 20260510000429 | 64 | 22 | 0.0 | 0.0 | 0.00 | 0.00 | 0.00 | 38 | 979.7 |
| 20260509235430 | 65 | 22 | 0.0 | 2.0 | 0.00 | 0.00 | 0.00 | 42 | 979.6 |
| 20260509234928 | 65 | 22 | 0.0 | 3.0 | 0.00 | 0.00 | 0.00 | 43 | 979.6 |
| 20260509233931 | 66 | 11 | 0.0 | 0.0 | 0.00 | 0.00 | 0.00 | 45 | 979.6 |
| 20260509233432 | 66 | 11 | 0.0 | 0.0 | 0.00 | 0.00 | 0.00 | 46 | 979.6 |
| 20260509232931 | 66 | 11 | 0.0 | 0.0 | 0.00 | 0.00 | 0.00 | 46 | 979.5 |
| 20260509232428 | 66 | 11 | 0.0 | 0.0 | 0.00 | 0.00 | 0.00 | 47 | 979.5 |
| 20260509231429 | 66 | 11 | 0.0 | 0.0 | 0.00 | 0.00 | 0.00 | 47 | 979.5 |
| 20260509230931 | 66 | 11 | 0.0 | 0.0 | 0.00 | 0.00 | 0.00 | 48 | 979.5 |
| 20260509230432 | 67 | 11 | 0.0 | 1.0 | 0.00 | 0.00 | 0.00 | 49 | 979.5 |
| 20260509225929 | 67 | 11 | 0.0 | 2.0 | 0.00 | 0.00 | 0.00 | 49 | 979.5 |
| 20260509225429 | 67 | 11 | 1.0 | 3.0 | 0.00 | 0.00 | 0.00 | 50 | 979.5 |
| 20260509224931 | 67 | 11 | 1.0 | 5.0 | 0.00 | 0.00 | 0.00 | 51 | 979.5 |
| 20260509224428 | 67 | 40 | 1.0 | 5.0 | 0.00 | 0.00 | 0.00 | 51 | 979.5 |
| 20260509223926 | 67 | 40 | 1.0 | 2.0 | 0.00 | 0.00 | 0.00 | 51 | 979.5 |
| 20260509223426 | 67 | 40 | 0.0 | 2.0 | 0.00 | 0.00 | 0.00 | 51 | 979.3 |
| 20260509222922 | 67 | 40 | 0.0 | 3.0 | 0.00 | 0.00 | 0.00 | 51 | 979.4 |
| 20260509222414 | 67 | 40 | 0.0 | 3.0 | 0.00 | 0.00 | 0.00 | 52 | 979.4 |
| 20260509221902 | 68 | 40 | 0.0 | 3.0 | 0.00 | 0.00 | 0.00 | 52 | 979.4 |
| 20260509221402 | 68 | 38 | 0.0 | 3.0 | 0.00 | 0.00 | 0.00 | 52 | 979.3 |
| 20260509220905 | 68 | 38 | 2.0 | 3.0 | 0.00 | 0.00 | 0.00 | 52 | 979.4 |
| 20260509220405 | 68 | 11 | 0.0 | 3.0 | 0.00 | 0.00 | 0.00 | 52 | 979.3 |
| 20260509215904 | 68 | 5 | 1.0 | 3.0 | 0.00 | 0.00 | 0.00 | 53 | 979.3 |
| 20260509215407 | 69 | 0 | 0.0 | 4.0 | 0.00 | 0.00 | 0.00 | 52 | 979.3 |
| 20260509214906 | 69 | 340 | 1.0 | 4.0 | 0.00 | 0.00 | 0.00 | 52 | 979.3 |
| 20260509213902 | 69 | 35 | 0.0 | 4.0 | 0.00 | 0.00 | 0.00 | 53 | 979.5 |
| 20260509213402 | 69 | 335 | 1.0 | 8.0 | 0.00 | 0.00 | 0.00 | 52 | 979.4 |
| 20260509212901 | 69 | 336 | 4.0 | 8.0 | 0.00 | 0.00 | 0.00 | 52 | 979.4 |
| 20260509212403 | 69 | 60 | 1.0 | 3.0 | 0.00 | 0.00 | 0.00 | 52 | 979.4 |
| 20260509211902 | 68 | 153 | 0.0 | 3.0 | 0.00 | 0.00 | 0.00 | 53 | 979.5 |
| 20260509211402 | 68 | 153 | 1.0 | 3.0 | 0.00 | 0.00 | 0.00 | 53 | 979.6 |
| 20260509210401 | 68 | 140 | 0.0 | 2.0 | 0.00 | 0.00 | 0.00 | 53 | 979.6 |
| 20260509205900 | 68 | 140 | 1.0 | 2.0 | 0.00 | 0.00 | 0.00 | 53 | 979.6 |
| 20260509204901 | 68 | 136 | 1.0 | 4.0 | 0.00 | 0.00 | 0.00 | 53 | 979.5 |
| 20260509204401 | 67 | 120 | 1.0 | 4.0 | 0.00 | 0.00 | 0.00 | 53 | 979.6 |
| 20260509203858 | 68 | 117 | 1.0 | 3.0 | 0.00 | 0.00 | 0.00 | 53 | 979.5 |
| 20260509203401 | 68 | 117 | 1.0 | 3.0 | 0.00 | 0.00 | 0.00 | 53 | 979.6 |
| 20260509202856 | 68 | 215 | 1.0 | 3.0 | 0.00 | 0.00 | 0.00 | 53 | 979.6 |
| 20260509201338 | 68 | 155 | 2.0 | 4.0 | 0.00 | 0.00 | 0.00 | 53 | 979.6 |
| 20260509200833 | 68 | 189 | 1.0 | 5.0 | 0.00 | 0.00 | 0.00 | 53 | 979.6 |
| 20260509200330 | 68 | 178 | 1.0 | 6.0 | 0.00 | 0.00 | 0.00 | 53 | 979.7 |
| 20260509195831 | 68 | 213 | 1.0 | 6.0 | 0.00 | 0.00 | 0.00 | 52 | 979.6 |
| 20260509195329 | 68 | 176 | 3.0 | 5.0 | 0.00 | 0.00 | 0.00 | 53 | 979.7 |
| 20260509194829 | 67 | 195 | 1.0 | 8.0 | 0.00 | 0.00 | 0.00 | 53 | 979.6 |
| 20260509193829 | 67 | 146 | 2.0 | 6.0 | 0.00 | 0.00 | 0.00 | 53 | 979.8 |
| 20260509193328 | 67 | 138 | 2.0 | 4.0 | 0.00 | 0.00 | 0.00 | 53 | 979.9 |
| 20260509192831 | 67 | 182 | 2.0 | 6.0 | 0.00 | 0.00 | 0.00 | 53 | 979.8 |
| 20260509192330 | 67 | 238 | 2.0 | 7.0 | 0.00 | 0.00 | 0.00 | 53 | 979.8 |
| 20260509191829 | 67 | 171 | 4.0 | 7.0 | 0.00 | 0.00 | 0.00 | 53 | 979.9 |
| 20260509191329 | 67 | 178 | 1.0 | 4.0 | 0.00 | 0.00 | 0.00 | 53 | 979.9 |
| 20260509190331 | 67 | 178 | 2.0 | 7.0 | 0.00 | 0.00 | 0.00 | 53 | 980.1 |
| 20260509185829 | 68 | 182 | 3.0 | 6.0 | 0.00 | 0.00 | 0.00 | 52 | 980.1 |
| 20260509185329 | 68 | 175 | 2.0 | 6.0 | 0.00 | 0.00 | 0.00 | 52 | 980.1 |
| 20260509184829 | 67 | 225 | 2.0 | 6.0 | 0.00 | 0.00 | 0.00 | 53 | 980.1 |
| 20260509184329 | 67 | 190 | 3.0 | 6.0 | 0.00 | 0.00 | 0.00 | 53 | 980.2 |
| 20260509183830 | 67 | 142 | 3.0 | 6.0 | 0.00 | 0.00 | 0.00 | 53 | 980.2 |
| 20260509183331 | 66 | 142 | 2.0 | 6.0 | 0.00 | 0.00 | 0.00 | 53 | 980.2 |
| 20260509182831 | 65 | 174 | 3.0 | 6.0 | 0.00 | 0.00 | 0.00 | 53 | 980.3 |
| 20260509182330 | 65 | 119 | 2.0 | 5.0 | 0.00 | 0.00 | 0.00 | 53 | 980.4 |
| 20260509181830 | 65 | 82 | 2.0 | 5.0 | 0.00 | 0.00 | 0.00 | 53 | 980.4 |
| 20260509181332 | 65 | 167 | 3.0 | 5.0 | 0.00 | 0.00 | 0.00 | 53 | 980.6 |
| 20260509180829 | 65 | 134 | 1.0 | 4.0 | 0.00 | 0.00 | 0.00 | 53 | 980.8 |
| 20260509180331 | 65 | 178 | 2.0 | 5.0 | 0.00 | 0.00 | 0.00 | 53 | 981.0 |
| 20260509175330 | 65 | 189 | 2.0 | 4.0 | 0.00 | 0.00 | 0.00 | 53 | 981.1 |
| 20260509174829 | 64 | 145 | 2.0 | 4.0 | 0.00 | 0.00 | 0.00 | 53 | 981.1 |
| 20260509174329 | 64 | 160 | 1.0 | 4.0 | 0.00 | 0.00 | 0.00 | 51 | 981.3 |
| 20260509173829 | 64 | 107 | 1.0 | 3.0 | 0.00 | 0.00 | 0.00 | 50 | 981.4 |
| 20260509173329 | 64 | 98 | 0.0 | 2.0 | 0.00 | 0.00 | 0.00 | 52 | 981.6 |
| 20260509171833 | 64 | 178 | 1.0 | 4.0 | 0.00 | 0.00 | 0.00 | 54 | 981.6 |
| 20260509171330 | 64 | 182 | 0.0 | 4.0 | 0.00 | 0.00 | 0.00 | 54 | 981.6 |
| 20260509170829 | 64 | 34 | 1.0 | 4.0 | 0.00 | 0.00 | 0.00 | 54 | 981.5 |
| 20260509170329 | 64 | 171 | 2.0 | 4.0 | 0.00 | 0.00 | 0.00 | 53 | 981.3 |
| 20260509165329 | 65 | 40 | 1.0 | 2.0 | 0.00 | 0.00 | 0.00 | 53 | 981.3 |
| 20260509164830 | 64 | 40 | 0.0 | 3.0 | 0.00 | 0.00 | 0.00 | 53 | 981.3 |
| 20260509164330 | 64 | 44 | 1.0 | 3.0 | 0.00 | 0.00 | 0.00 | 54 | 981.4 |
| 20260509163831 | 63 | 43 | 1.0 | 2.0 | 0.00 | 0.00 | 0.00 | 54 | 981.3 |
| 20260509163331 | 63 | 144 | 0.0 | 4.0 | 0.00 | 0.00 | 0.00 | 54 | 981.5 |
| 20260509162831 | 63 | 144 | 2.0 | 4.0 | 0.00 | 0.00 | 0.00 | 53 | 981.5 |
| 20260509162329 | 65 | 74 | 1.0 | 4.0 | 0.00 | 0.00 | 0.00 | 52 | 981.5 |
| 20260509161329 | 65 | 123 | 2.0 | 4.0 | 0.00 | 0.00 | 0.00 | 52 | 981.7 |
| 20260509160828 | 65 | 352 | 2.0 | 5.0 | 0.00 | 0.00 | 0.00 | 53 | 981.5 |
| 20260509160329 | 65 | 63 | 2.0 | 5.0 | 0.00 | 0.00 | 0.00 | 52 | 981.5 |
| 20260509155829 | 65 | 298 | 0.0 | 5.0 | 0.00 | 0.00 | 0.00 | 53 | 981.5 |
| 20260509155324 | 65 | 46 | 1.0 | 5.0 | 0.00 | 0.00 | 0.00 | 53 | 981.5 |
| 20260509154819 | 65 | 345 | 0.0 | 3.0 | 0.00 | 0.00 | 0.00 | 53 | 981.5 |
| 20260509154325 | 65 | 345 | 0.0 | 3.0 | 0.00 | 0.00 | 0.00 | 52 | 981.5 |
| 20260509153811 | 65 | 352 | 0.0 | 2.0 | 0.00 | 0.00 | 0.00 | 52 | 981.5 |
| 20260509152804 | 64 | 352 | 0.0 | 3.0 | 0.00 | 0.00 | 0.00 | 52 | 981.7 |
| 20260509152305 | 64 | 350 | 1.0 | 3.0 | 0.00 | 0.00 | 0.00 | 52 | 981.7 |
| 20260509151802 | 63 | 238 | 1.0 | 4.0 | 0.00 | 0.00 | 0.00 | 52 | 981.7 |
| 20260509151302 | 62 | 232 | 1.0 | 4.0 | 0.00 | 0.00 | 0.00 | 52 | 981.8 |
| 20260509150803 | 61 | 155 | 1.0 | 4.0 | 0.00 | 0.00 | 0.00 | 52 | 982.0 |
| 20260509150301 | 61 | 192 | 0.0 | 3.0 | 0.00 | 0.00 | 0.00 | 51 | 982.1 |
| 20260509145805 | 60 | 192 | 1.0 | 3.0 | 0.00 | 0.00 | 0.00 | 47 | 982.2 |
| 20260509145301 | 60 | 179 | 1.0 | 3.0 | 0.00 | 0.00 | 0.00 | 49 | 982.2 |
| 20260509144801 | 60 | 180 | 0.0 | 2.0 | 0.00 | 0.00 | 0.00 | 49 | 982.0 |
| 20260509144304 | 60 | 180 | 0.0 | 0.0 | 0.00 | 0.00 | 0.00 | 43 | 981.9 |
| 20260509143800 | 60 | 180 | 0.0 | 1.0 | 0.00 | 0.00 | 0.00 | 45 | 981.9 |
| 20260509143301 | 60 | 180 | 0.0 | 1.0 | 0.00 | 0.00 | 0.00 | 40 | 981.9 |
| 20260509142804 | 60 | 180 | 0.0 | 0.0 | 0.00 | 0.00 | 0.00 | 43 | 981.8 |
| 20260509142300 | 59 | 180 | 0.0 | 0.0 | 0.00 | 0.00 | 0.00 | 45 | 981.8 |
| 20260509141802 | 59 | 180 | 0.0 | 0.0 | 0.00 | 0.00 | 0.00 | 48 | 981.8 |
| 20260509141253 | 59 | 180 | 0.0 | 0.0 | 0.00 | 0.00 | 0.00 | 48 | 981.6 |
| 20260509140753 | 59 | 180 | 0.0 | 1.0 | 0.00 | 0.00 | 0.00 | 49 | 981.5 |
| 20260509140249 | 59 | 180 | 0.0 | 1.0 | 0.00 | 0.00 | 0.00 | 49 | 981.5 |
| 20260509135748 | 59 | 180 | 0.0 | 2.0 | 0.00 | 0.00 | 0.00 | 49 | 981.5 |
| 20260509135242 | 58 | 180 | 1.0 | 2.0 | 0.00 | 0.00 | 0.00 | 48 | 981.5 |
| 20260509134744 | 58 | 180 | 0.0 | 2.0 | 0.00 | 0.00 | 0.00 | 49 | 981.4 |
| 20260509134237 | 58 | 180 | 0.0 | 2.0 | 0.00 | 0.00 | 0.00 | 49 | 981.4 |
| 20260509133241 | 58 | 179 | 1.0 | 2.0 | 0.00 | 0.00 | 0.00 | 49 | 981.4 |
| 20260509132733 | 58 | 180 | 0.0 | 2.0 | 0.00 | 0.00 | 0.00 | 49 | 981.3 |
| 20260509132233 | 58 | 180 | 0.0 | 2.0 | 0.00 | 0.00 | 0.00 | 51 | 981.4 |
| 20260509131735 | 57 | 179 | 0.0 | 4.0 | 0.00 | 0.00 | 0.00 | 52 | 981.2 |
| 20260509131232 | 57 | 179 | 1.0 | 4.0 | 0.00 | 0.00 | 0.00 | 52 | 981.1 |
| 20260509130730 | 57 | 169 | 1.0 | 5.0 | 0.00 | 0.00 | 0.00 | 51 | 981.2 |
| 20260509130233 | 57 | 169 | 1.0 | 5.0 | 0.00 | 0.00 | 0.00 | 52 | 981.2 |
| 20260509125731 | 57 | 184 | 1.0 | 3.0 | 0.00 | 0.00 | 0.00 | 52 | 981.3 |
| 20260509125230 | 57 | 185 | 1.0 | 3.0 | 0.00 | 0.00 | 0.00 | 52 | 981.4 |
| 20260509124730 | 57 | 184 | 1.0 | 3.0 | 0.00 | 0.00 | 0.00 | 52 | 981.4 |
| 20260509124230 | 58 | 184 | 1.0 | 4.0 | 0.00 | 0.00 | 0.00 | 51 | 981.4 |
| 20260509123730 | 57 | 184 | 1.0 | 4.0 | 0.00 | 0.00 | 0.00 | 52 | 981.5 |
| 20260509122233 | 57 | 150 | 0.0 | 0.0 | 0.00 | 0.00 | 0.00 | 52 | 981.4 |
| 20260509121229 | 57 | 150 | 0.0 | 2.0 | 0.00 | 0.00 | 0.00 | 50 | 981.4 |
| 20260509120728 | 57 | 150 | 0.0 | 2.0 | 0.00 | 0.00 | 0.00 | 52 | 981.4 |
| 20260509120229 | 57 | 111 | 1.0 | 2.0 | 0.00 | 0.00 | 0.00 | 52 | 981.5 |
| 20260509115729 | 57 | 138 | 0.0 | 2.0 | 0.00 | 0.00 | 0.00 | 52 | 981.5 |
| 20260509115232 | 56 | 137 | 0.0 | 3.0 | 0.00 | 0.00 | 0.00 | 53 | 981.4 |
| 20260509114228 | 56 | 0 | 1.0 | 3.0 | 0.00 | 0.00 | 0.00 | 53 | 981.2 |
| 20260509113730 | 56 | 0 | 0.0 | 1.0 | 0.00 | 0.00 | 0.00 | 52 | 981.3 |
| 20260509113228 | 56 | 0 | 0.0 | 1.0 | 0.00 | 0.00 | 0.00 | 53 | 981.3 |
| 20260509112723 | 56 | 0 | 0.0 | 1.0 | 0.00 | 0.00 | 0.00 | 54 | 981.2 |
| 20260509112226 | 56 | 0 | 0.0 | 2.0 | 0.00 | 0.00 | 0.00 | 54 | 981.0 |
| 20260509111724 | 56 | 0 | 0.0 | 2.0 | 0.00 | 0.00 | 0.00 | 54 | 981.0 |
| 20260509111220 | 56 | 0 | 0.0 | 2.0 | 0.00 | 0.00 | 0.00 | 54 | 981.0 |
| 20260509110722 | 55 | 0 | 1.0 | 2.0 | 0.00 | 0.00 | 0.00 | 54 | 980.9 |
| 20260509105211 | 55 | 0 | 0.0 | 2.0 | 0.00 | 0.00 | 0.00 | 55 | 980.6 |
| 20260509104711 | 55 | 235 | 1.0 | 3.0 | 0.00 | 0.00 | 0.00 | 55 | 980.7 |
| 20260509104206 | 55 | 235 | 0.0 | 3.0 | 0.00 | 0.00 | 0.00 | 55 | 980.7 |
| 20260509103703 | 55 | 230 | 0.0 | 4.0 | 0.00 | 0.00 | 0.00 | 55 | 980.6 |
| 20260509103202 | 55 | 230 | 0.0 | 4.0 | 0.00 | 0.00 | 0.00 | 55 | 980.7 |
| 20260509102702 | 55 | 234 | 0.0 | 4.0 | 0.00 | 0.00 | 0.00 | 55 | 980.8 |
| 20260509102203 | 55 | 205 | 0.0 | 2.0 | 0.00 | 0.00 | 0.00 | 55 | 980.8 |
| 20260509101702 | 55 | 204 | 0.0 | 2.0 | 0.00 | 0.00 | 0.00 | 55 | 980.8 |
| 20260509100201 | 56 | 204 | 0.0 | 3.0 | 0.00 | 0.00 | 0.00 | 55 | 980.7 |
| 20260509095704 | 56 | 226 | 1.0 | 3.0 | 0.00 | 0.00 | 0.00 | 55 | 980.5 |
| 20260509094703 | 56 | 198 | 1.0 | 6.0 | 0.00 | 0.00 | 0.00 | 55 | 980.6 |
| 20260509094200 | 56 | 229 | 1.0 | 6.0 | 0.00 | 0.00 | 0.00 | 55 | 980.7 |
| 20260509093702 | 56 | 176 | 2.0 | 5.0 | 0.00 | 0.00 | 0.00 | 55 | 980.7 |
| 20260509093203 | 56 | 0 | 1.0 | 6.0 | 0.00 | 0.00 | 0.00 | 55 | 980.7 |
| 20260509092707 | 56 | 0 | 3.0 | 6.0 | 0.00 | 0.00 | 0.00 | 55 | 980.7 |
| 20260509092206 | 56 | 0 | 2.0 | 5.0 | 0.00 | 0.00 | 0.00 | 55 | 980.7 |
| 20260509091704 | 56 | 0 | 1.0 | 5.0 | 0.00 | 0.00 | 0.00 | 55 | 980.6 |
| 20260509090702 | 55 | 162 | 3.0 | 6.0 | 0.00 | 0.00 | 0.00 | 55 | 980.9 |
| 20260509090205 | 55 | 225 | 2.0 | 6.0 | 0.00 | 0.00 | 0.00 | 54 | 980.9 |
| 20260509085704 | 55 | 200 | 2.0 | 6.0 | 0.00 | 0.00 | 0.00 | 55 | 980.8 |
| 20260509085202 | 55 | 184 | 2.0 | 5.0 | 0.00 | 0.00 | 0.00 | 54 | 980.7 |
| 20260509084702 | 55 | 0 | 2.0 | 5.0 | 0.00 | 0.00 | 0.00 | 54 | 980.9 |
| 20260509084202 | 55 | 0 | 1.0 | 5.0 | 0.00 | 0.00 | 0.00 | 54 | 981.0 |
| 20260509082701 | 55 | 0 | 3.0 | 8.0 | 0.00 | 0.00 | 0.00 | 54 | 981.0 |
| 20260509082202 | 55 | 0 | 2.0 | 7.0 | 0.00 | 0.00 | 0.00 | 54 | 980.9 |
| 20260509081701 | 55 | 173 | 3.0 | 7.0 | 0.00 | 0.00 | 0.00 | 54 | 981.0 |
| 20260509081203 | 55 | 223 | 1.0 | 5.0 | 0.00 | 0.00 | 0.00 | 54 | 981.0 |
| 20260509080704 | 55 | 0 | 1.0 | 6.0 | 0.00 | 0.00 | 0.00 | 54 | 981.1 |
| 20260509075701 | 54 | 167 | 2.0 | 5.0 | 0.00 | 0.00 | 0.00 | 53 | 981.1 |
| 20260509075201 | 54 | 153 | 2.0 | 4.0 | 0.00 | 0.00 | 0.00 | 53 | 981.2 |
| 20260509074703 | 54 | 173 | 2.0 | 4.0 | 0.00 | 0.00 | 0.00 | 53 | 981.2 |
| 20260509074202 | 54 | 178 | 1.0 | 4.0 | 0.00 | 0.00 | 0.00 | 52 | 981.1 |
| 20260509073701 | 54 | 182 | 1.0 | 4.0 | 0.00 | 0.00 | 0.00 | 52 | 981.2 |
| 20260509073204 | 54 | 182 | 0.0 | 3.0 | 0.00 | 0.00 | 0.00 | 52 | 981.1 |
| 20260509072702 | 54 | 182 | 0.0 | 2.0 | 0.00 | 0.00 | 0.00 | 52 | 981.2 |
| 20260509072201 | 54 | 181 | 1.0 | 2.0 | 0.00 | 0.00 | 0.00 | 52 | 981.2 |
| 20260509071202 | 54 | 181 | 0.0 | 3.0 | 0.00 | 0.00 | 0.00 | 52 | 981.2 |
| 20260509070202 | 54 | 182 | 1.0 | 2.0 | 0.00 | 0.00 | 0.00 | 52 | 981.4 |
| 20260509065705 | 54 | 182 | 1.0 | 2.0 | 0.00 | 0.00 | 0.00 | 52 | 981.3 |
| 20260509065202 | 54 | 182 | 0.0 | 2.0 | 0.00 | 0.00 | 0.00 | 52 | 981.5 |
| 20260509064700 | 54 | 182 | 1.0 | 4.0 | 0.00 | 0.00 | 0.00 | 52 | 981.4 |
| 20260509064204 | 54 | 182 | 1.0 | 4.0 | 0.00 | 0.00 | 0.00 | 52 | 981.4 |
| 20260509063702 | 54 | 171 | 0.0 | 3.0 | 0.00 | 0.00 | 0.00 | 52 | 981.4 |
| 20260509063203 | 54 | 153 | 1.0 | 3.0 | 0.00 | 0.00 | 0.00 | 52 | 981.5 |
| 20260509062703 | 54 | 215 | 1.0 | 3.0 | 0.00 | 0.00 | 0.00 | 52 | 981.5 |
| 20260509062204 | 54 | 234 | 0.0 | 4.0 | 0.00 | 0.00 | 0.00 | 52 | 981.6 |
| 20260509060202 | 54 | 168 | 1.0 | 4.0 | 0.00 | 0.00 | 0.00 | 51 | 981.7 |
| 20260509055702 | 54 | 117 | 1.0 | 3.0 | 0.00 | 0.00 | 0.00 | 51 | 981.7 |
| 20260509055201 | 54 | 130 | 1.0 | 4.0 | 0.00 | 0.00 | 0.00 | 52 | 981.7 |
| 20260509054700 | 54 | 150 | 1.0 | 4.0 | 0.00 | 0.00 | 0.00 | 52 | 981.8 |
| 20260509054203 | 54 | 167 | 0.0 | 1.0 | 0.00 | 0.00 | 0.00 | 53 | 981.8 |
| 20260509053703 | 54 | 168 | 0.0 | 0.0 | 0.00 | 0.00 | 0.00 | 53 | 981.9 |
| 20260509053203 | 54 | 168 | 0.0 | 4.0 | 0.00 | 0.00 | 0.00 | 54 | 981.9 |
| 20260509052703 | 54 | 168 | 0.0 | 5.0 | 0.00 | 0.00 | 0.00 | 54 | 981.9 |
| 20260509052200 | 55 | 169 | 1.0 | 5.0 | 0.00 | 0.00 | 0.00 | 54 | 982.0 |
| 20260509051701 | 55 | 225 | 0.0 | 2.0 | 0.00 | 0.00 | 0.00 | 55 | 982.1 |
| 20260509051205 | 55 | 225 | 1.0 | 2.0 | 0.00 | 0.00 | 0.00 | 55 | 982.1 |
| 20260509050702 | 55 | 225 | 0.0 | 3.0 | 0.00 | 0.00 | 0.00 | 55 | 982.1 |
| 20260509050203 | 55 | 196 | 1.0 | 3.0 | 0.00 | 0.00 | 0.00 | 55 | 982.1 |
| 20260509045703 | 55 | 186 | 0.0 | 2.0 | 0.00 | 0.00 | 0.00 | 55 | 982.2 |
| 20260509045203 | 55 | 186 | 1.0 | 3.0 | 0.00 | 0.00 | 0.00 | 55 | 982.2 |